Wind_Speed
45 45 44 43 43 44 45 43 44 46 48 50 52 53 55 57 60 64 68 72 73 76 78 78 78 79 81 84 88 89 82 79 70 69 67 63 59 55 52 50 53 51 50
49 49 48 47 49 50 48 48 49 51 52 53 55 57 59 62 65 68 71 73 75 78 79 78 80 81 82 87 90 88 80 75 71 70 70 64 61 55 54 52 51 51 50
55 53 52 52 52 51 51 54 54 55 55 56 57 59 63 65 69 71 74 77 79 79 78 80 81 84 87 90 90 88 83 74 69 71 67 66 60 57 55 52 54 53 52
58 59 57 56 55 55 56 58 58 59 59 60 61 65 66 71 72 75 78 81 82 80 79 82 83 87 92 92 93 85 84 76 72 70 66 60 61 60 59 60 61 58 58
63 63 61 60 60 61 62 63 63 62 63 63 68 70 72 74 77 79 82 82 81 79 84 84 87 92 96 96 96 87 84 79 74 69 65 65 65 67 71 70 68 66 63
63 64 62 64 64 65 65 65 65 67 66 69 73 73 77 78 81 82 84 81 81 85 86 89 93 96 99 98 95 88 85 77 75 71 68 69 73 77 81 77 72 66 62
70 67 64 65 65 66 64 65 69 68 71 75 76 77 81 82 83 85 83 85 86 88 91 94 99 100 100 97 95 90 87 76 77 76 77 79 81 85 84 84 70 73 70
72 70 69 68 69 68 69 73 73 75 79 79 79 81 83 84 85 85 84 87 90 93 96 100 101 101 99 98 95 92 85 78 78 77 83 88 86 78 69 74 69 69 66
76 76 75 75 75 75 77 77 78 81 81 82 83 83 82 84 87 87 89 91 94 96 100 102 101 100 101 100 95 93 85 82 82 86 89 78 64 63 68 73 72 67 69
72 73 75 75 76 76 79 82 83 83 85 87 85 83 84 82 84 85 90 94 99 102 105 102 103 101 102 97 97 90 86 84 88 90 77 69 64 62 62 65 70 73 69
83 84 83 80 82 83 86 87 87 87 88 86 83 86 86 89 88 91 92 96 100 104 104 104 105 105 98 96 95 88 86 90 91 79 69 66 62 57 59 64 70 75 71
80 83 85 86 87 89 89 89 86 82 85 86 88 88 90 92 94 96 97 100 99 99 103 105 108 101 96 97 90 87 89 93 83 71 66 63 62 60 62 60 63 65 65
88 86 85 85 86 87 87 89 89 88 89 88 90 91 92 95 97 98 100 98 97 100 105 105 104 97 96 93 89 91 95 90 74 67 65 64 63 61 61 58 58 52 56
91 93 92 91 91 90 92 92 93 93 92 93 95 97 98 99 98 98 97 98 102 103 106 104 96 95 95 89 89 95 95 79 68 63 64 66 66 65 62 58 57 52 47
98 98 96 95 95 95 95 94 95 94 96 97 96 97 97 94 95 96 98 102 102 107 105 95 94 93 89 88 93 98 80 68 63 63 65 65 63 63 62 61 57 51 45
104 103 102 101 100 99 99 97 99 99 97 98 96 95 94 95 94 97 103 105 106 108 100 95 91 90 87 90 97 82 71 61 61 64 67 66 65 64 62 60 57 55 51
110 107 106 105 105 104 102 101 101 100 98 96 96 97 95 97 100 104 103 108 107 98 91 93 88 87 91 94 84 74 62 59 61 65 66 64 63 63 63 63 61 59 56
114 113 111 110 110 109 108 106 106 102 99 100 98 95 99 101 105 102 106 105 91 91 90 87 85 89 96 85 74 65 58 59 63 68 66 66 64 63 63 64 63 63 62
115 113 111 109 108 107 105 102 100 100 98 95 98 95 100 104 99 106 103 94 91 89 86 85 90 94 85 74 66 59 58 61 66 69 68 68 67 66 67 66 66 65 65
108 108 106 106 103 98 95 95 95 94 91 96 93 102 102 107 99 100 90 89 87 85 86 91 94 83 75 68 61 59 60 65 69 71 70 69 69 69 70 69 68 67 68
101 99 96 94 92 91 90 92 91 97 95 100 101 96 104 94 92 86 87 84 82 85 90 95 88 75 70 64 61 60 64 69 71 72 72 72 72 72 72 70 70 72 72
90 89 88 89 90 92 95 98 98 100 105 98 102 89 91 86 82 85 81 81 83 88 94 82 75 71 66 62 61 64 69 73 73 74 74 74 74 75 74 72 73 72 69
90 91 94 97 102 106 105 108 107 106 100 88 90 84 82 85 78 76 79 83 88 92 82 74 70 69 64 62 64 68 71 74 76 76 76 76 79 76 74 76 74 69 68
82 87 92 94 96 98 94 90 87 84 81 78 77 80 76 72 74 77 82 87 90 79 73 69 67 65 61 64 67 70 73 76 76 79 80 79 77 75 74 76 71 69 69
77 79 79 80 77 76 76 72 70 73 73 77 74 69 70 72 76 83 87 81 77 71 69 67 66 63 64 66 68 71 75 77 79 81 82 79 74 77 76 72 68 68 69
70 70 67 62 62 66 67 67 71 70 65 62 65 67 73 78 83 85 77 75 69 67 65 66 64 64 64 65 69 73 76 80 81 81 79 77 76 79 77 71 69 68 68
Wind_Direction
264 266 269 273 275 280 282 284 287 290 291 293 296 298 302 305 309 311 314 316 320 321 322 323 323 324 324 324 324 327 328 329 321 316 318 314 312 307 305 302 305 307 307
263 266 269 273 276 280 278 283 284 287 291 296 298 299 301 305 308 311 313 317 319 320 321 321 321 322 322 324 324 326 326 325 318 313 313 311 308 305 303 303 303 303 303
262 264 268 271 273 277 276 282 282 285 288 296 298 301 303 306 308 311 313 317 318 319 319 318 320 320 320 322 324 325 324 321 314 310 308 305 303 301 299 299 300 298 299
262 265 268 270 270 276 279 281 284 287 289 294 298 300 303 305 308 310 315 317 317 318 316 317 318 319 320 322 324 323 322 318 310 308 305 303 301 302 301 300 300 298 299
263 267 269 271 274 276 279 281 284 286 291 294 298 299 303 306 307 311 314 316 315 314 315 316 317 318 319 321 322 322 321 313 310 307 302 301 303 302 302 300 298 296 294
264 267 270 273 276 277 279 280 282 287 290 296 297 300 303 305 308 311 314 313 312 313 314 315 316 317 319 321 322 321 317 310 308 304 303 304 305 304 302 296 292 285 282
264 267 269 275 274 274 277 277 285 285 289 293 296 300 303 305 308 310 311 310 310 312 313 314 315 317 319 320 320 319 314 308 306 307 309 307 305 302 295 292 287 279 279
262 266 268 268 272 275 274 280 280 286 289 292 296 300 302 306 307 308 307 309 310 312 313 314 316 319 318 319 318 315 311 308 308 309 305 303 301 296 286 293 292 287 283
261 264 267 269 272 275 276 279 281 284 289 292 295 298 302 303 305 306 307 308 310 310 312 314 317 318 318 318 315 313 310 310 309 310 307 302 297 292 288 285 285 282 277
261 265 269 271 271 273 276 277 281 285 290 294 296 299 300 301 303 306 307 308 309 310 312 315 316 317 317 313 312 311 310 310 309 309 306 301 296 293 288 289 285 279 275
262 265 269 271 272 275 276 278 283 289 290 295 295 298 298 300 301 303 304 306 308 310 313 313 317 317 313 310 311 309 309 311 311 308 303 300 299 298 301 297 290 280 267
260 262 267 270 272 273 277 282 286 288 289 293 292 295 297 299 301 302 305 306 309 309 312 314 316 313 310 310 309 309 310 311 312 307 305 306 306 308 309 305 301 285 273
259 261 264 266 270 273 276 280 284 288 289 291 293 295 296 298 300 302 305 306 306 310 311 313 313 309 308 309 310 311 312 312 310 307 308 309 310 309 311 312 312 301 276
259 263 266 268 271 274 276 279 282 285 287 290 292 294 296 299 301 303 304 306 308 309 311 312 308 307 308 308 310 312 312 309 307 307 311 312 312 314 313 314 315 312 292
260 263 266 268 271 273 275 279 281 283 286 289 291 293 296 298 300 303 304 305 307 310 310 307 305 306 307 307 310 311 309 307 306 310 312 311 312 311 311 313 312 310 303
259 262 264 267 269 271 274 278 281 284 286 288 291 293 295 298 301 302 305 306 306 308 306 303 304 305 305 308 310 309 307 305 307 312 311 311 312 310 310 309 308 308 305
258 261 264 266 269 272 275 277 279 282 287 288 291 292 295 299 300 302 303 304 303 302 299 302 305 305 307 308 309 306 304 302 307 309 308 309 309 309 309 308 307 304 300
259 261 264 267 269 271 274 276 278 283 286 287 291 293 296 298 299 300 301 301 297 297 300 303 305 306 308 309 308 305 301 303 306 307 307 308 307 308 309 306 303 300 299
258 261 264 267 269 272 274 276 280 282 286 289 291 295 296 296 296 296 296 297 297 299 301 304 305 306 308 307 306 303 302 304 306 307 307 309 308 309 307 304 301 299 296
260 261 264 266 269 272 275 278 280 284 286 289 290 293 292 292 294 294 294 294 297 299 302 303 305 307 306 306 304 303 303 305 306 307 307 308 309 309 308 305 302 300 297
260 262 264 267 270 274 276 279 281 283 288 290 288 286 288 287 291 293 293 294 296 300 302 302 306 306 306 304 302 301 303 304 306 306 309 308 307 306 307 305 303 302 300
261 264 267 269 271 273 275 279 282 284 281 282 284 282 283 288 289 291 291 292 296 299 303 305 304 306 305 303 302 302 302 306 307 306 305 306 307 307 307 306 305 303 301
261 263 267 269 270 270 273 273 274 277 277 276 279 281 282 286 289 288 291 293 296 300 302 302 304 306 304 304 301 302 303 305 306 307 307 308 308 309 308 308 307 305 304
261 262 263 264 266 267 270 269 272 275 277 278 280 283 283 286 288 290 292 295 298 299 301 301 303 305 302 300 302 303 304 305 307 308 309 310 310 309 309 308 307 306 304
259 260 262 264 266 266 268 271 271 273 278 278 278 280 284 285 288 290 294 297 298 299 300 301 303 303 302 303 303 304 306 307 309 310 311 311 311 310 310 308 307 307 305
258 260 263 263 262 265 270 271 271 275 276 276 279 279 280 286 290 292 293 296 297 297 299 301 302 301 303 303 304 306 308 308 311 312 312 312 313 311 310 309 309 308 306
Height
10861 10862 10864 10865 10864 10864 10864 10864 10863 10861 10860 10858 10856 10854 10852 10849 10846 10842 10838 10833 10828 10823 10817 10812 10805 10798 10792 10786 10778 10770 10762 10754 10748 10741 10736 10732 10728 10724 10721 10718 10715 10711 10708
10853 10855 10856 10857 10856 10856 10856 10855 10854 10853 10851 10850 10847 10845 10842 10839 10836 10833 10829 10825 10819 10812 10806 10800 10793 10787 10781 10774 10767 10760 10752 10744 10737 10731 10724 10719 10715 10711 10709 10706 10703 10700 10697
10845 10846 10848 10848 10848 10849 10848 10847 10845 10845 10844 10842 10839 10835 10832 10829 10825 10821 10818 10814 10808 10803 10796 10789 10782 10776 10770 10762 10754 10746 10739 10732 10726 10719 10711 10706 10701 10698 10694 10692 10690 10688 10686
10835 10836 10838 10839 10839 10839 10838 10836 10835 10834 10833 10832 10829 10826 10823 10819 10814 10810 10806 10801 10795 10790 10784 10777 10770 10764 10757 10749 10741 10732 10724 10717 10711 10704 10698 10692 10687 10683 10680 10677 10675 10674 10672
10824 10825 10827 10828 10829 10828 10828 10826 10825 10824 10823 10822 10818 10815 10812 10807 10802 10799 10795 10788 10783 10777 10771 10765 10757 10750 10742 10734 10726 10717 10709 10701 10694 10688 10682 10676 10671 10666 10663 10661 10658 10656 10656
10812 10814 10817 10818 10818 10817 10816 10816 10815 10814 10813 10812 10807 10805 10801 10796 10791 10787 10781 10775 10770 10765 10757 10750 10743 10734 10726 10718 10709 10702 10695 10686 10678 10672 10665 10658 10652 10648 10643 10640 10638 10636 10635
10802 10805 10807 10808 10807 10806 10807 10806 10805 10803 10802 10802 10798 10795 10788 10784 10779 10774 10768 10763 10757 10752 10745 10736 10728 10718 10709 10701 10693 10685 10677 10671 10664 10651 10644 10641 10634 10627 10620 10617 10616 10613 10613
10791 10795 10795 10795 10796 10796 10795 10795 10792 10792 10790 10790 10787 10784 10778 10769 10765 10761 10755 10748 10742 10735 10728 10720 10711 10702 10693 10685 10677 10668 10659 10652 10645 10640 10629 10619 10613 10604 10597 10592 10592 10591 10591
10779 10780 10782 10784 10784 10783 10781 10781 10780 10780 10778 10776 10775 10772 10767 10758 10751 10745 10739 10733 10727 10720 10712 10704 10694 10685 10675 10667 10658 10649 10639 10630 10623 10617 10607 10598 10592 10589 10583 10577 10575 10574 10573
10765 10767 10767 10769 10769 10770 10767 10766 10767 10767 10766 10762 10760 10755 10752 10748 10744 10737 10723 10713 10708 10702 10696 10687 10678 10669 10659 10649 10641 10631 10621 10613 10604 10594 10586 10580 10576 10570 10565 10560 10556 10554 10555
10754 10751 10752 10755 10755 10755 10753 10753 10754 10755 10752 10749 10744 10740 10737 10733 10728 10726 10722 10708 10697 10686 10677 10669 10659 10649 10640 10632 10624 10614 10604 10595 10585 10575 10567 10560 10554 10550 10544 10536 10531 10526 10531
10738 10738 10741 10742 10741 10741 10743 10741 10740 10739 10738 10735 10731 10727 10722 10718 10712 10707 10702 10694 10685 10675 10664 10653 10644 10635 10624 10616 10606 10596 10587 10577 10566 10556 10548 10542 10534 10527 10521 10514 10506 10500 10505
10725 10727 10728 10729 10729 10730 10730 10729 10729 10726 10724 10720 10715 10711 10706 10700 10695 10689 10685 10679 10670 10661 10649 10638 10628 10618 10608 10599 10588 10577 10568 10558 10548 10540 10532 10525 10518 10510 10503 10495 10487 10481 10480
10709 10712 10715 10716 10717 10717 10717 10717 10716 10714 10709 10706 10700 10694 10688 10683 10676 10671 10666 10658 10653 10644 10634 10622 10612 10601 10591 10582 10571 10560 10551 10540 10532 10524 10517 10509 10500 10492 10486 10481 10473 10467 10462
10694 10697 10700 10703 10704 10704 10703 10702 10700 10699 10695 10690 10685 10680 10673 10667 10661 10654 10647 10640 10633 10627 10617 10605 10596 10585 10575 10566 10554 10545 10535 10525 10517 10510 10502 10494 10487 10480 10473 10467 10463 10457 10453
10677 10681 10684 10686 10688 10688 10688 10688 10684 10682 10679 10674 10669 10664 10659 10653 10646 10638 10631 10621 10613 10607 10601 10591 10580 10571 10561 10552 10540 10528 10519 10510 10504 10497 10488 10480 10473 10466 10460 10457 10450 10444 10438
10662 10666 10668 10670 10671 10672 10673 10671 10669 10665 10662 10658 10653 10647 10642 10636 10630 10621 10614 10606 10597 10589 10582 10574 10564 10555 10544 10535 10525 10513 10504 10498 10492 10484 10477 10469 10461 10453 10447 10440 10435 10430 10427
10644 10647 10649 10650 10651 10653 10653 10652 10651 10648 10643 10639 10634 10629 10624 10617 10612 10604 10596 10589 10580 10572 10564 10555 10547 10538 10527 10516 10507 10499 10491 10484 10478 10470 10462 10455 10447 10441 10435 10428 10422 10415 10410
10625 10629 10631 10632 10634 10634 10634 10632 10630 10627 10623 10619 10615 10611 10606 10601 10593 10588 10578 10571 10562 10554 10546 10539 10530 10520 10509 10499 10491 10483 10476 10469 10463 10454 10446 10440 10431 10426 10419 10413 10406 10399 10394
10605 10608 10612 10613 10615 10614 10613 10612 10610 10608 10604 10602 10598 10594 10588 10582 10575 10569 10560 10553 10544 10536 10529 10521 10511 10500 10491 10483 10475 10468 10460 10454 10447 10438 10431 10424 10417 10410 10402 10394 10386 10380 10373
10583 10587 10591 10593 10594 10594 10594 10593 10591 10590 10586 10585 10583 10575 10570 10563 10557 10550 10543 10534 10528 10520 10513 10504 10493 10484 10475 10467 10460 10453 10446 10438 10431 10421 10415 10406 10400 10393 10385 10375 10366 10358 10348
10563 10567 10570 10573 10574 10575 10577 10574 10572 10573 10571 10567 10563 10557 10552 10546 10539 10533 10525 10518 10512 10505 10496 10485 10476 10468 10460 10452 10446 10438 10430 10421 10414 10407 10399 10391 10383 10374 10364 10353 10345 10336 10327
10544 10548 10551 10553 10556 10557 10559 10559 10555 10556 10552 10548 10545 10539 10534 10529 10522 10516 10509 10503 10496 10488 10478 10470 10461 10453 10445 10438 10432 10424 10414 10406 10397 10387 10380 10373 10359 10352 10341 10331 10323 10314 10305
10525 10530 10533 10536 10538 10539 10540 10539 10537 10536 10533 10530 10526 10522 10517 10511 10505 10499 10494 10486 10479 10470 10462 10455 10447 10439 10432 10425 10418 10408 10399 10390 10380 10369 10359 10353 10341 10330 10322 10310 10303 10295 10284
10507 10510 10515 10517 10520 10520 10520 10520 10519 10517 10515 10512 10508 10504 10499 10495 10489 10484 10477 10469 10462 10453 10446 10438 10432 10426 10418 10410 10401 10392 10382 10372 10364 10351 10339 10330 10322 10309 10303 10293 10285 10276 10266
10491 10494 10498 10500 10502 10502 10503 10503 10503 10500 10497 10494 10492 10488 10483 10478 10471 10466 10458 10452 10445 10438 10431 10424 10418 10410 10403 10395 10386 10377 10366 10355 10345 10335 10322 10309 10303 10288 10276 10271 10265 10258 10249